This demonstration page uses our WeatherBlox Daily Observations layout. Learn more.

Left ArrowRight Arrow

39.51506, -84.39828

Hourly Observations for September 21, 2021

Temp ( °F °C ) Dew Point ( °F °C ) Humidity (%) Winds ( mph kmh ) Pressure ( in mb ) Visibility ( mi km ) Precip ( " mm )
12:15 am 00:15 Partly Cloudy 69 20.6 68 20 96 96 SSE 6 9 30.03 1017 10 16 N/A
12:35 am 00:35 Clear 69 20.4 68 20 98 98 N N/A 30.04 1017 10 16 N/A
12:55 am 00:55 Clear 69 20.5 68 19.8 96 96 S 7 11 30.04 1017 10 16 N/A
1:15 am 01:15 Partly Cloudy 68 20 67 19.6 98 98 N N/A 30.05 1018 10 16 N/A
1:35 am 01:35 Partly Cloudy 67 19.5 67 19.4 99 99 N N/A 30.06 1018 10 16 N/A
1:55 am 01:55 Clear 66 19 66 19 100 100 NW 3 6 30.07 1018 7 11 N/A
2:15 am 02:15 Partly Cloudy with Mist and Fog 64 18 N/A N/A N N/A 30.06 1018 4 6 N/A
2:35 am 02:35 Mostly Cloudy with Haze 64 18 N/A N/A N N/A 30.07 1018 5 8 N/A
2:55 am 02:55 Cloudy with Haze 64 18 N/A N/A N N/A 30.07 1018 5 8 N/A
3:15 am 03:15 Cloudy with Haze 64 18 N/A N/A N N/A 30.06 1018 5 8 N/A
3:35 am 03:35 Cloudy with Haze 66 19 N/A N/A N N/A 30.06 1018 7 11 N/A
3:55 am 03:55 Cloudy with Haze 66 19 N/A N/A N N/A 30.06 1018 5 8 N/A
4:15 am 04:15 Cloudy 66 19 N/A N/A N N/A 30.06 1018 7 11 N/A
4:35 am 04:35 Mostly Cloudy 66 19 N/A N/A N N/A 30.05 1018 10 16 N/A
4:55 am 04:55 Mostly Cloudy 66 19 N/A N/A N N/A 30.05 1018 7 11 N/A
5:15 am 05:15 Cloudy 66 19 N/A N/A N N/A 30.05 1018 10 16 N/A
5:35 am 05:35 Cloudy 68 20 N/A N/A N N/A 30.04 1017 10 16 N/A
5:55 am 05:55 Cloudy 68 20.1 67 19.7 98 98 SE 3 6 30.04 1017 10 16 N/A
6:15 am 06:15 Cloudy with Light Rain 69 20.4 67 19.7 96 96 S 6 9 30.05 1018 10 16 N/A
6:35 am 06:35 Cloudy with Light Rain 69 20.4 67 19.6 95 95 SSE 10 17 30.05 1018 7 11 N/A
6:55 am 06:55 Cloudy with Heavy Rain 68 20 68 19.9 99 99 S 8 13 30.06 1018 7 11 0.02 0.51
7:15 am 07:15 Cloudy 68 20.1 68 19.9 99 99 S 7 11 30.06 1018 7 11 N/A
7:35 am 07:35 Cloudy with Rain 68 20 68 20 100 100 SSE 8 13 30.07 1018 5 8 N/A
7:55 am 07:55 Cloudy with Light Rain 68 20 N/A N/A S 7 11 30.07 1018 3 4 0.02 0.51
8:15 am 08:15 Cloudy with Heavy Rain 68 20 N/A N/A S 5 7 30.07 1018 2 3 0.03 0.76
8:35 am 08:35 Cloudy with Light Rain 68 20 N/A N/A S 9 15 30.08 1019 2 2 0.08 2.03
8:55 am 08:55 Cloudy with Light Rain 68 20 N/A N/A SSE 9 15 30.07 1018 2 3 0.10 2.54
9:15 am 09:15 Cloudy with Light Rain 68 20 N/A N/A S 7 11 30.07 1018 5 8 0.01 0.25
9:35 am 09:35 Cloudy 68 20 N/A N/A SSE 8 13 30.07 1018 7 11 0.01 0.25
9:55 am 09:55 Cloudy 68 20 N/A N/A S 9 15 30.08 1019 7 11 0.01 0.25
10:15 am 10:15 Cloudy with Mist and Fog 68 20 N/A N/A S 8 13 30.08 1019 3 5 N/A
10:35 am 10:35 Cloudy with Light Rain 68 20 N/A N/A S 7 11 30.10 1019 3 4 N/A
10:55 am 10:55 Cloudy with Drizzle 68 20 N/A N/A SSW 10 17 30.10 1019 3 4 N/A
11:15 am 11:15 Cloudy with Drizzle 68 20 N/A N/A S 8 13 30.10 1019 3 4 0.01 0.25
11:35 am 11:35 Cloudy with Drizzle 70 21 N/A N/A S 9 15 30.10 1019 4 6 0.01 0.25
11:55 am 11:55 Cloudy 70 21 N/A N/A S 8 13 30.09 1019 10 16 0.01 0.25
12:15 pm 12:15 Cloudy 71 21.4 70 21.3 99 99 S 9 15 30.08 1019 10 16 N/A
12:35 pm 12:35 Cloudy 70 21.3 70 21.1 99 99 S 10 17 30.08 1019 10 16 N/A
12:55 pm 12:55 Cloudy 71 21.5 70 21.1 98 98 S 9 15 30.08 1019 10 16 N/A
1:15 pm 13:15 Cloudy 71 21.8 70 21.2 96 96 S 14 22 30.08 1019 10 16 N/A
1:35 pm 13:35 Cloudy 71 21.9 70 21.2 96 96 S 13 20 30.07 1018 10 16 N/A
1:55 pm 13:55 Cloudy with Mist and Fog 71 21.9 71 21.4 97 97 S 12 19 30.06 1018 7 11 N/A
2:15 pm 14:15 Cloudy 73 22.6 71 21.4 93 93 SSW 10 17 30.05 1018 10 16 N/A
2:35 pm 14:35 Cloudy 73 22.5 70 21 91 91 S 10 17 30.05 1018 10 16 N/A
2:55 pm 14:55 Cloudy 74 23.2 71 21.5 90 90 SSW 9 15 30.04 1017 10 16 N/A
3:15 pm 15:15 Cloudy 74 23.2 70 21.2 89 89 S 9 15 30.03 1017 10 16 N/A
3:35 pm 15:35 Cloudy 73 23 70 21.1 89 89 S 10 17 30.03 1017 10 16 N/A
3:55 pm 15:55 Cloudy 74 23.1 70 21.1 89 89 S 8 13 30.02 1017 10 16 N/A
4:15 pm 16:15 Cloudy 73 22.7 70 21.3 92 92 S 7 11 30.02 1017 10 16 N/A
4:35 pm 16:35 Cloudy 74 23.2 70 21.3 89 89 S 6 9 30.02 1016 10 16 N/A
4:55 pm 16:55 Cloudy 74 23.5 71 21.6 89 89 SE 8 13 30.01 1016 10 16 N/A
5:15 pm 17:15 Cloudy 73 23 71 21.5 91 91 SSE 7 11 30.01 1016 10 16 N/A
5:35 pm 17:35 Cloudy 74 23.1 71 21.4 90 90 S 7 11 30.01 1016 10 16 N/A
5:55 pm 17:55 Cloudy 74 23.1 71 21.6 91 91 WSW 5 7 30.01 1016 10 16 N/A
6:15 pm 18:15 Cloudy 73 23 71 21.6 92 92 SSW 3 6 30.01 1016 10 16 N/A
6:35 pm 18:35 Cloudy with Light Rain 73 22.6 71 21.8 95 95 N N/A 30.01 1016 5 8 N/A
6:55 pm 18:55 Cloudy 72 22.3 72 22.2 99 99 N N/A 30.00 1016 10 16 N/A
7:15 pm 19:15 Cloudy 72 22.4 71 21.9 97 97 S 3 6 30.00 1016 7 11 N/A
7:35 pm 19:35 Cloudy 72 22.1 71 21.9 99 99 SE 5 7 30.00 1016 10 16 N/A
7:55 pm 19:55 Cloudy 71 21.9 71 21.8 99 99 SSE 5 7 30.00 1016 10 16 N/A
8:15 pm 20:15 Cloudy 72 22 71 21.7 98 98 SSE 6 9 30.00 1016 10 16 N/A
8:35 pm 20:35 Cloudy 72 22 72 22 100 100 SE 3 6 30.00 1016 10 16 N/A
8:55 pm 20:55 Cloudy 72 22 N/A N/A SE 5 7 30.00 1016 10 16 N/A
9:15 pm 21:15 Cloudy 72 22 N/A N/A SE 3 6 30.00 1016 10 16 N/A
9:35 pm 21:35 Cloudy 72 22 N/A N/A SE 6 9 29.99 1016 10 16 N/A
9:55 pm 21:55 Cloudy 72 22 N/A N/A SSE 5 7 30.00 1016 10 16 N/A
10:15 pm 22:15 Cloudy 72 22 N/A N/A SSE 5 7 30.00 1016 10 16 N/A
10:35 pm 22:35 Cloudy 72 22 N/A N/A SSE 5 7 29.99 1016 10 16 N/A
10:55 pm 22:55 Cloudy with Mist and Fog 70 21 N/A N/A S 5 7 29.99 1016 4 6 N/A
11:15 pm 23:15 Cloudy with Drizzle 70 21 N/A N/A SE 3 6 29.98 1015 4 6 0.01 0.25
11:35 pm 23:35 Cloudy 70 21 N/A N/A SE 5 7 29.97 1015 10 16 0.01 0.25
11:55 pm 23:55 Cloudy with Haze 70 21 N/A N/A SE 7 11 29.96 1015 7 11 0.01 0.25

Powered by AerisWeather